User: anonymous   Login
Location: Dumpton Point
(51.3500°N, 1.4433°E)
Time: 10:56:42
(UTC+00:00)
Language:

A-11 Canister half - Orbit

View from above orbital plane
View from above orbital plane
View from above satellite
View from above satellite

Ground track
Ground track

The orbit data is extracted from the following two-line orbital elements,

1 00053U 60009E   24060.69839103  .00000003  00000-0  87330-3 0  9991
2 00053  47.2774  48.6704 0097158 117.7611 243.3069 12.17322648833281
Epoch (UTC): 29 February 2024 16:45:40
Eccentricity: 0.0097158
inclination: 47.2774°
perigee height: 1526 km
apogee height: 1682 km
right ascension of ascending node: 48.6704°
argument of perigee: 117.7611°
revolutions per day: 12.17322648
mean anomaly at epoch: 243.3069°
orbit number at epoch: 83328

The dashed part of the orbit path shows where the satellite is in the earth's shadow,  

DLR